Marion, SC

5:55 PM EDT on April 26, 2017 (GMT -0400)
Marion County

Weather History for KMAO - December, 2013

Change the Weather History Date:

Tuesday, December 3, 2013

  Actual Average (KFLO) Record (KFLO)
Temperature  
Mean Temperature 50 °F -  
Max Temperature 59 °F 61 °F 86 °F (1991)
Min Temperature 41 °F 38 °F 22 °F (1960)
Degree Days  
Heating Degree Days 15    
Moisture  
Dew Point 47 °F    
Average Humidity 85    
Maximum Humidity 100    
Minimum Humidity 63    
Precipitation  
Precipitation 0.02 in - - ()
Sea Level Pressure  
Sea Level Pressure 29.96 in    
Wind  
Wind Speed 1 mph (SE)    
Max Wind Speed 7 mph    
Max Gust Speed -    
Visibility 9 miles    
Events Rain    
Averages and records for this station are not official NWS values.
T = Trace of Precipitation, MM = Missing Value Source: NWS Daily Summary

Daily Weather History Graph

Daily Weather History Graph

Search for Another Location

Airport or City:

Trip Planner

Search our weather history database for the weather conditions in past years. The results will help you decide how hot, cold, wet, or windy it might be!

Date:

Astronomy

Dec. 03, 2013 Rise Set
Actual Time 7:06 AM EST 5:07 PM EST
Civil Twilight 6:39 AM EST 5:34 PM EST
Nautical Twilight 6:08 AM EST 6:06 PM EST
Astronomical Twilight 5:38 AM EST 6:36 PM EST
Moon 7:35 AM EST (12/3) 6:08 PM EST (12/3)
Length of Visible Light 10h 55m
Length of Day
10h 00m
New Moon, 1% of the Moon is Illuminated
Dec 3
New Moon
Dec 9
First Quarter
Dec 17
Full
Dec 25
Last Quarter
Jan 1
New

Hourly Weather History & Observations

Time (EST) Temp. Windchill Dew Point Humidity Pressure Visibility Wind Dir Wind Speed Gust Speed Precip Events Conditions
12:15 AM 42.8 °F - 42.8 °F 100% 29.90 in 7.0 mi Calm Calm - N/A   Overcast
12:35 AM 44.6 °F - 42.8 °F 93% 29.90 in 7.0 mi Calm Calm - N/A   Overcast
12:55 AM 44.6 °F - 42.8 °F 93% 29.90 in 7.0 mi Calm Calm - N/A   Overcast
1:35 AM 44.6 °F - 44.6 °F 100% 29.90 in 10.0 mi Calm Calm - N/A   Overcast
1:55 AM 44.6 °F - 44.6 °F 100% 29.90 in 7.0 mi Calm Calm - N/A   Overcast
2:15 AM 46.4 °F - 44.6 °F 93% 29.89 in 10.0 mi Calm Calm - N/A   Overcast
2:35 AM 46.4 °F - 44.6 °F 93% 29.90 in 10.0 mi Calm Calm - N/A   Overcast
2:55 AM 44.6 °F - 44.6 °F 100% 29.90 in 7.0 mi Calm Calm - N/A   Scattered Clouds
3:15 AM 44.6 °F - 44.6 °F 100% 29.90 in 7.0 mi Calm Calm - N/A   Clear
3:35 AM 42.8 °F - 42.8 °F 100% 29.89 in 5.0 mi Calm Calm - N/A   Clear
3:55 AM 44.6 °F 43.1 °F 44.6 °F 100% 29.90 in 7.0 mi SSE 3.5 mph - N/A   Mostly Cloudy
4:15 AM 44.6 °F - 42.8 °F 93% 29.90 in 7.0 mi Calm Calm - N/A   Mostly Cloudy
4:35 AM 42.8 °F - 42.8 °F 100% 29.89 in 5.0 mi Calm Calm - N/A   Scattered Clouds
4:55 AM 42.8 °F - 42.8 °F 100% 29.89 in 4.0 mi Calm Calm - N/A   Clear
5:15 AM 41.0 °F - 41.0 °F 100% 29.90 in 7.0 mi Calm Calm - N/A   Clear
5:35 AM 41.0 °F - 41.0 °F 100% 29.91 in 7.0 mi Calm Calm - N/A   Scattered Clouds
5:55 AM 41.0 °F - 41.0 °F 100% 29.92 in 7.0 mi Calm Calm - N/A   Scattered Clouds
6:15 AM 42.8 °F - 42.8 °F 100% 29.93 in 7.0 mi Calm Calm - N/A   Mostly Cloudy
6:35 AM 42.8 °F - 42.8 °F 100% 29.94 in 7.0 mi Calm Calm - N/A   Mostly Cloudy
6:55 AM 44.6 °F - 42.8 °F 93% 29.95 in 7.0 mi Calm Calm - N/A   Scattered Clouds
7:15 AM 44.6 °F - 42.8 °F 93% 29.95 in 7.0 mi Calm Calm - N/A   Overcast
7:35 AM 44.6 °F - 42.8 °F 93% 29.96 in 7.0 mi Calm Calm - N/A   Overcast
7:55 AM 44.6 °F - 44.6 °F 100% 29.96 in 7.0 mi Calm Calm - N/A   Mostly Cloudy
8:15 AM 46.4 °F - 44.6 °F 93% 29.96 in 7.0 mi Calm Calm - N/A   Mostly Cloudy
8:35 AM 46.4 °F - 44.6 °F 93% 29.97 in 10.0 mi Calm Calm - N/A   Overcast
8:55 AM 48.2 °F - 44.6 °F 87% 29.97 in 10.0 mi Calm Calm - N/A   Overcast
9:15 AM 48.2 °F - 44.6 °F 87% 29.98 in 10.0 mi Calm Calm - N/A   Overcast
9:35 AM 50.0 °F - 46.4 °F 87% 29.99 in 10.0 mi Calm Calm - N/A   Overcast
9:55 AM 50.0 °F - 46.4 °F 87% 29.99 in 10.0 mi Calm Calm - N/A   Overcast
10:15 AM 51.8 °F - 46.4 °F 82% 30.00 in 10.0 mi SSE 4.6 mph - N/A   Overcast
10:35 AM 53.6 °F - 46.4 °F 77% 30.00 in 10.0 mi SSE 4.6 mph - N/A   Overcast
10:55 AM 53.6 °F - 46.4 °F 77% 30.00 in 10.0 mi SSE 4.6 mph - N/A   Overcast
11:15 AM 53.6 °F - 46.4 °F 77% 30.00 in 10.0 mi SSE 3.5 mph - N/A   Overcast
11:35 AM 53.6 °F - 46.4 °F 77% 29.99 in 10.0 mi Calm Calm - N/A   Overcast
11:55 AM 53.6 °F - 46.4 °F 77% 29.98 in 10.0 mi Calm Calm - N/A   Overcast
12:15 PM 55.4 °F - 46.4 °F 72% 29.98 in 10.0 mi SSE 3.5 mph - N/A   Overcast
12:35 PM 55.4 °F - 46.4 °F 72% 29.97 in 10.0 mi SSE 4.6 mph - N/A   Overcast
12:55 PM 55.4 °F - 44.6 °F 67% 29.97 in 10.0 mi SSE 5.8 mph - N/A   Overcast
1:15 PM 57.2 °F - 44.6 °F 63% 29.96 in 10.0 mi South 4.6 mph - N/A   Overcast
1:35 PM 59.0 °F - 46.4 °F 63% 29.95 in 10.0 mi SSE 5.8 mph - N/A   Overcast
1:55 PM 59.0 °F - 46.4 °F 63% 29.95 in 10.0 mi Calm Calm - N/A   Overcast
2:15 PM 59.0 °F - 46.4 °F 63% 29.95 in 10.0 mi SSE 3.5 mph - N/A   Overcast
2:35 PM 59.0 °F - 46.4 °F 63% 29.95 in 10.0 mi Calm Calm - N/A   Overcast
2:55 PM 59.0 °F - 46.4 °F 63% 29.95 in 10.0 mi Calm Calm - N/A   Overcast
3:15 PM 59.0 °F - 46.4 °F 63% 29.95 in 10.0 mi SE 3.5 mph - N/A   Overcast
3:35 PM 59.0 °F - 48.2 °F 67% 29.94 in 10.0 mi Calm Calm - N/A   Overcast
3:55 PM 59.0 °F - 48.2 °F 67% 29.95 in 10.0 mi Calm Calm - N/A   Overcast
4:15 PM 59.0 °F - 48.2 °F 67% 29.95 in 10.0 mi Calm Calm - N/A   Overcast
4:35 PM 59.0 °F - 50.0 °F 72% 29.96 in 10.0 mi Calm Calm - N/A   Overcast
4:55 PM 57.2 °F - 50.0 °F 77% 29.96 in 10.0 mi Calm Calm - N/A   Overcast
5:15 PM 55.4 °F - 50.0 °F 82% 29.96 in 10.0 mi Calm Calm - N/A   Overcast
5:35 PM 55.4 °F - 50.0 °F 82% 29.96 in 10.0 mi Calm Calm - N/A   Light Drizzle
5:55 PM 55.4 °F - 50.0 °F 82% 29.97 in 10.0 mi East 3.5 mph - N/A   Overcast
6:15 PM 55.4 °F - 50.0 °F 82% 29.97 in 10.0 mi ESE 4.6 mph - N/A   Overcast
6:35 PM 57.2 °F - 50.0 °F 77% 29.97 in 10.0 mi ESE 3.5 mph - N/A   Overcast
6:55 PM 57.2 °F - 50.0 °F 77% 29.98 in 10.0 mi ESE 4.6 mph - N/A   Overcast
7:15 PM 57.2 °F - 50.0 °F 77% 29.98 in 10.0 mi ESE 4.6 mph - N/A   Overcast
7:35 PM 55.4 °F - 50.0 °F 82% 29.98 in 10.0 mi ESE 4.6 mph - N/A   Overcast
7:55 PM 55.4 °F - 50.0 °F 82% 29.99 in 10.0 mi SE 5.8 mph - N/A   Overcast
8:15 PM 55.4 °F - 50.0 °F 82% 30.00 in 10.0 mi Calm Calm - N/A   Overcast
8:35 PM 55.4 °F - 50.0 °F 82% 30.00 in 10.0 mi SE 3.5 mph - N/A   Scattered Clouds
8:55 PM 55.4 °F - 50.0 °F 82% 30.00 in 10.0 mi SE 3.5 mph - N/A   Mostly Cloudy
9:15 PM 55.4 °F - 50.0 °F 82% 29.99 in 10.0 mi Calm Calm - N/A   Mostly Cloudy
9:35 PM 55.4 °F - 50.0 °F 82% 30.00 in 10.0 mi SE 5.8 mph - N/A   Clear
9:55 PM 55.4 °F - 50.0 °F 82% 30.00 in 10.0 mi SE 3.5 mph - N/A   Scattered Clouds
10:15 PM 55.4 °F - 50.0 °F 82% 30.00 in 10.0 mi South 6.9 mph - N/A   Mostly Cloudy
10:35 PM 53.6 °F - 50.0 °F 88% 30.01 in 10.0 mi Calm Calm - N/A Rain Rain
10:55 PM 53.6 °F - 51.8 °F 94% 30.01 in 10.0 mi Calm Calm - N/A Rain Light Rain
11:15 PM 53.6 °F - 51.8 °F 94% 30.01 in 10.0 mi South 3.5 mph - N/A Rain Light Rain
11:35 PM 53.6 °F - 51.8 °F 94% 30.02 in 5.0 mi Calm Calm - 0.01 in Rain Light Rain
11:55 PM 53.6 °F - 53.6 °F 100% 30.01 in 5.0 mi SSE 3.5 mph - 0.02 in Rain Light Rain